Location: Home
(42.5358°N, 72.7383°W)
Time: 01:27:44
(UTC-05:00)

Vanguard 3 - Pass Details

Date: 04 December 2021
Orbit: 508 x 3260 km, 33.3° (Epoch: 21 January)

Event Time Altitude Azimuth Distance (km) Brightness Sun altitude
Rises 05:32:15 0° 258° (WSW) 7,201 - -16.5°
Exits shadow 05:36:18 - 256° (WSW) 6,377 11.2 -15.7°
Reaches altitude 10° 05:37:11 10° 255° (WSW) 6,197 11.1 -15.6°
Maximum altitude 05:56:14 61° 182° (S) 3,008 10.1 -12.2°
Drops below altitude 10° 06:09:11 10° 106° (ESE) 4,399 12.5 -10.0°
Sets 06:12:03 0° 103° (ESE) 5,085 13.4 -9.5°
